sat.trackr.live / text

‹ back to catalog

ONEWEB-0430

NORAD 50501 · 2021-132AJ

PAYLOAD ACTIVE UNKNOWN

§ Identity

Operator
Country
UK
Launch date
2021-12-27
Launch site
TYMSC
Launch vehicle
Mass (kg)
RCS (m²)

Purposes: comms

External: N2YO · Heavens-Above · Gunter

§ Orbital elements

Epoch: 2026-05-25T02:37:15.091680Z

Period
109.20 min
Inclination
87.9161°
Eccentricity
0.0001612
Mean motion
13.18694924 rev/d
Perigee alt
1,188.5 km
Apogee alt
1,190.9 km
Semi-major
7,567.8 km
B*
-2.2464e-3
RAAN
340.0511°
Arg perigee
91.2207°
Mean anomaly
268.9110°
Rev number
21,858

§ Raw data

ONEWEB-04301 50501U 21132AJ  26145.10920245 -.00000873  00000+0 -22464-2 0  99902 50501  87.9161 340.0511 0001612  91.2207 268.9110 13.18694924218588

JSON: /api/v1/satellites/50501 · /tle

For live sub-satellite position, see the globe view (requires WebGL).

§ Visibility from observer

Set your observer location to see the next 7 days of passes ≥ 10°. The values pass through the URL so the page stays shareable.

No JS? Fill the form by hand. The geolocation button needs JavaScript.